Weather History for Owosso, MI

Change the Weather History Date:

Sunday, December 1, 2013

  Actual Average (KFNT) Record (KFNT)
Temperature  
Mean Temperature 36 °F 32 °F  
Max Temperature 41 °F 39 °F 63 °F (1970)
Min Temperature 32 °F 26 °F 4 °F (1966)
Degree Days  
Heating Degree Days 28 32  
Month to date heating degree days 32  
Since 1 July heating degree days 1513  
Cooling Degree Days 0 0  
Month to date cooling degree days 0  
Year to date cooling degree days 531  
Moisture  
Dew Point 31 °F    
Average Humidity 78    
Maximum Humidity 99    
Minimum Humidity 57    
Precipitation  
Precipitation 0.00 in 0.07 in 0.88 in (2006)
Month to date precipitation 0.07  
Year to date precipitation 29.52  
Snow  
Snow 0.00 in 0.30 in 7.90 in (1974)
Month to date snowfall 0.3  
Since 1 July snowfall 3.2  
Snow Depth -    
Sea Level Pressure  
Sea Level Pressure 30.02 in    
Wind  
Wind Speed 4 mph (WNW)    
Max Wind Speed 9 mph    
Max Gust Speed -    
Visibility 8 miles    
Events Snow    
T = Trace of Precipitation, MM = Missing Value Source: NWS Daily Summary

Daily Weather History Graph

Daily Weather History Graph

Search for Another Location

Airport:

Trip Planner

Search our weather history database for the weather conditions in past years. The results will help you decide how hot, cold, wet, or windy it might be!

Date:

Astronomy

Dec. 01, 2013 Rise Set
Actual Time 7:48 AM EST 5:02 PM EST
Civil Twilight 7:16 AM EST 5:34 PM EST
Nautical Twilight 6:41 AM EST 6:10 PM EST
Astronomical Twilight 6:07 AM EST 6:44 PM EST
Moon 6:03 AM EST (12/1) 4:13 PM EST (12/1)
Length of Visible Light 10h 18m
Length of Day
9h 14m
Waning Crescent, 2% of the Moon is Illuminated
Dec 1
Waning Crescent
Dec 2
New
Dec 9
First Quarter
Dec 17
Full
Dec 25
Last Quarter

Hourly Weather History & Observations

Time (EST) Temp. Windchill Dew Point Humidity Pressure Visibility Wind Dir Wind Speed Gust Speed Precip Events Conditions
12:15 AM 40.5 °F 36.5 °F 27.3 °F 59% 30.05 in 10.0 mi SSW 5.8 mph - N/A   Overcast
12:34 AM 40.3 °F 36.3 °F 27.3 °F 60% 30.04 in 10.0 mi SSW 5.8 mph - N/A   Scattered Clouds
12:55 AM 41.4 °F 37.6 °F 27.5 °F 58% 30.03 in 10.0 mi SW 5.8 mph - N/A   Scattered Clouds
1:15 AM 41.0 °F 37.1 °F 27.3 °F 58% 30.03 in 10.0 mi SW 5.8 mph - N/A   Scattered Clouds
1:34 AM 41.5 °F 37.1 °F 27.5 °F 57% 30.02 in 10.0 mi SW 6.9 mph - N/A   Mostly Cloudy
1:55 AM 41.7 °F 37.3 °F 27.5 °F 57% 30.02 in 10.0 mi SW 6.9 mph - N/A   Scattered Clouds
2:15 AM 41.4 °F 38.4 °F 27.5 °F 58% 30.02 in 10.0 mi SW 4.6 mph - N/A   Scattered Clouds
2:34 AM 41.0 °F 37.1 °F 27.7 °F 59% 30.02 in 10.0 mi SW 5.8 mph - N/A   Mostly Cloudy
2:55 AM 41.0 °F 38.0 °F 27.9 °F 60% 30.02 in 10.0 mi SW 4.6 mph - N/A   Overcast
3:15 AM 40.6 °F 37.5 °F 28.0 °F 61% 30.02 in 10.0 mi WSW 4.6 mph - N/A   Overcast
3:34 AM 40.3 °F 37.1 °F 28.0 °F 62% 30.02 in 10.0 mi SW 4.6 mph - N/A   Overcast
3:55 AM 40.3 °F 37.1 °F 28.2 °F 62% 30.02 in 10.0 mi SW 4.6 mph - N/A   Overcast
4:15 AM 40.1 °F 36.9 °F 28.2 °F 63% 30.01 in 10.0 mi SSW 4.6 mph - N/A   Overcast
4:35 AM 39.7 °F 37.6 °F 28.4 °F 64% 30.01 in 10.0 mi SW 3.5 mph - N/A   Overcast
4:55 AM 39.6 °F 37.4 °F 28.4 °F 64% 30.01 in 10.0 mi SW 3.5 mph - N/A   Overcast
5:14 AM 39.2 °F 37.0 °F 28.4 °F 65% 30.00 in 10.0 mi SSW 3.5 mph - N/A   Mostly Cloudy
5:35 AM 39.2 °F 35.9 °F 28.4 °F 65% 30.00 in 10.0 mi SW 4.6 mph - N/A   Mostly Cloudy
5:55 AM 39.2 °F - 28.6 °F 66% 30.00 in 10.0 mi Calm Calm - N/A   Overcast
6:14 AM 39.2 °F - 28.8 °F 66% 30.00 in 10.0 mi Calm Calm - N/A   Overcast
6:35 AM 39.2 °F 37.0 °F 28.9 °F 67% 30.01 in 10.0 mi West 3.5 mph - N/A   Overcast
6:55 AM 38.5 °F 36.1 °F 28.9 °F 69% 30.01 in 10.0 mi West 3.5 mph - N/A   Overcast
7:14 AM 37.9 °F 35.5 °F 28.9 °F 70% 30.01 in 10.0 mi WSW 3.5 mph - N/A   Overcast
7:35 AM 37.4 °F 34.9 °F 28.9 °F 71% 30.01 in 10.0 mi WSW 3.5 mph - N/A   Mostly Cloudy
7:55 AM 37.9 °F 35.5 °F 29.3 °F 71% 30.02 in 10.0 mi West 3.5 mph - N/A   Overcast
8:14 AM 37.8 °F 34.2 °F 29.7 °F 73% 30.02 in 10.0 mi West 4.6 mph - N/A   Overcast
8:35 AM 38.3 °F 34.8 °F 30.0 °F 72% 30.02 in 10.0 mi West 4.6 mph - N/A   Overcast
8:55 AM 38.5 °F 35.0 °F 30.0 °F 72% 30.03 in 10.0 mi West 4.6 mph - N/A   Overcast
9:14 AM 38.7 °F 35.2 °F 30.2 °F 72% 30.03 in 10.0 mi West 4.6 mph - N/A   Overcast
9:35 AM 38.8 °F 35.4 °F 30.2 °F 71% 30.03 in 10.0 mi WNW 4.6 mph - N/A   Overcast
9:55 AM 38.8 °F 34.6 °F 30.4 °F 72% 30.04 in 10.0 mi NW 5.8 mph - N/A   Mostly Cloudy
10:15 AM 38.7 °F 34.3 °F 31.1 °F 74% 30.04 in 7.0 mi NNW 5.8 mph - N/A   Scattered Clouds
10:35 AM 39.0 °F 34.8 °F 32.2 °F 76% 30.04 in 7.0 mi NW 5.8 mph - N/A   Clear
10:54 AM 39.6 °F 35.4 °F 32.9 °F 77% 30.04 in 5.0 mi NNW 5.8 mph - N/A   Haze
11:15 AM 39.6 °F 34.7 °F 32.5 °F 76% 30.04 in 5.0 mi NNW 6.9 mph - N/A   Haze
11:35 AM 39.7 °F 35.6 °F 32.7 °F 76% 30.04 in 5.0 mi NNW 5.8 mph - N/A   Haze
11:54 AM 39.4 °F 33.8 °F 32.4 °F 76% 30.03 in 7.0 mi NNW 8.1 mph - N/A   Overcast
12:15 PM 39.0 °F 32.8 °F 32.4 °F 77% 30.03 in 5.0 mi North 9.2 mph - N/A   Haze
12:35 PM 37.6 °F 32.3 °F 33.8 °F 86% 30.03 in 4.0 mi North 6.9 mph - N/A   Overcast
12:54 PM 37.6 °F 34.0 °F 33.4 °F 85% 30.02 in 4.0 mi NNW 4.6 mph - N/A   Overcast
1:15 PM 38.3 °F 33.9 °F 33.1 °F 81% 30.02 in 5.0 mi NNW 5.8 mph - N/A   Haze
1:35 PM 37.6 °F 33.1 °F 32.7 °F 83% 30.02 in 4.0 mi NNW 5.8 mph - N/A   Haze
1:54 PM 37.4 °F 33.8 °F 33.8 °F 87% 30.01 in 4.0 mi North 4.6 mph - N/A   Overcast
2:15 PM 37.4 °F 33.8 °F 33.1 °F 84% 30.01 in 4.0 mi North 4.6 mph - N/A   Overcast
2:35 PM 37.4 °F 32.8 °F 33.1 °F 84% 30.01 in 4.0 mi NW 5.8 mph - N/A   Overcast
2:55 PM 37.4 °F 34.9 °F 32.9 °F 84% 30.01 in 4.0 mi North 3.5 mph - N/A   Overcast
3:15 PM 37.4 °F 34.9 °F 32.5 °F 83% 30.01 in 4.0 mi North 3.5 mph - N/A   Overcast
3:34 PM 37.6 °F 35.1 °F 32.5 °F 82% 30.01 in 5.0 mi NNW 3.5 mph - N/A   Haze
3:55 PM 37.6 °F - 32.0 °F 80% 30.01 in 5.0 mi Calm Calm - N/A   Haze
4:15 PM 37.4 °F - 32.0 °F 81% 30.01 in 5.0 mi Calm Calm - N/A   Haze
4:35 PM 37.9 °F - 32.0 °F 79% 30.02 in 7.0 mi Calm Calm - N/A   Overcast
4:55 PM 37.6 °F 34.0 °F 32.0 °F 80% 30.02 in 7.0 mi North 4.6 mph - N/A   Overcast
5:14 PM 36.7 °F 34.1 °F 32.7 °F 86% 30.02 in 7.0 mi North 3.5 mph - N/A   Overcast
5:35 PM 36.5 °F 31.8 °F 33.6 °F 89% 30.03 in 7.0 mi North 5.8 mph - N/A   Overcast
5:55 PM 35.8 °F 30.1 °F 33.4 °F 91% 30.03 in 7.0 mi North 6.9 mph - N/A   Overcast
6:14 PM 34.2 °F 31.2 °F 32.9 °F 95% 30.02 in 3.0 mi North 3.5 mph - N/A Snow Light Snow
6:35 PM 34.5 °F 31.6 °F 33.8 °F 97% 30.03 in 4.0 mi NNE 3.5 mph - N/A   Overcast
6:55 PM 34.5 °F 31.6 °F 33.8 °F 97% 30.02 in 5.0 mi NNE 3.5 mph - N/A   Overcast
7:14 PM 34.3 °F - 33.8 °F 98% 30.03 in 7.0 mi Calm Calm - N/A   Overcast
7:35 PM 34.2 °F - 33.8 °F 99% 30.03 in 7.0 mi Calm Calm - N/A   Overcast
7:54 PM 34.2 °F - 33.6 °F 98% 30.02 in 7.0 mi Calm Calm - N/A   Overcast
8:15 PM 34.2 °F 31.2 °F 33.3 °F 97% 30.02 in 7.0 mi North 3.5 mph - N/A   Overcast
8:35 PM 34.0 °F - 33.1 °F 96% 30.02 in 7.0 mi Calm Calm - N/A   Overcast
8:54 PM 33.8 °F - 32.5 °F 95% 30.02 in 7.0 mi Calm Calm - N/A   Overcast
9:15 PM 33.8 °F - 32.2 °F 94% 30.01 in 10.0 mi Calm Calm - N/A   Overcast
9:34 PM 33.4 °F - 32.0 °F 94% 30.01 in 10.0 mi Calm Calm - N/A   Overcast
9:55 PM 33.3 °F - 32.0 °F 95% 30.02 in 10.0 mi Calm Calm - N/A   Overcast
10:15 PM 33.3 °F - 31.8 °F 94% 30.02 in 10.0 mi Calm Calm - N/A   Overcast
10:34 PM 33.1 °F - 31.6 °F 94% 30.01 in 10.0 mi Calm Calm - N/A   Overcast
10:55 PM 33.1 °F - 31.5 °F 94% 30.01 in 10.0 mi Calm Calm - N/A   Overcast
11:15 PM 33.1 °F - 31.1 °F 92% 30.01 in 10.0 mi Calm Calm - N/A   Overcast
11:34 PM 32.9 °F - 31.1 °F 93% 30.01 in 10.0 mi Calm Calm - N/A   Overcast
11:55 PM 32.9 °F - 30.9 °F 92% 30.00 in 10.0 mi Calm Calm - N/A   Overcast